Regional Weather Roundup
Issued by NWS

Home | Current Version | Previous Version | Graphics & Text | Print | Product List | Glossary On
Versions: 1 2 3 4 5 6 7 8 9 10 11 12 13 14 15 16 17 18 19 20 21 22 23 24 25 26 27 28 29 30 31 32 33 34 35 36 37 38 39 40 41 42 43 44 45 46 47 48 49 50
000
ASUS43 KMKX 031600
RWRWI

WISCONSIN REGIONAL WEATHER ROUNDUP
NATIONAL WEATHER SERVICE MILWAUKEE/SULLIVAN WI
1100 AM CDT THU SEP 03 2015

NOTE: "FAIR" INDICATES FEW OR NO CLOUDS BELOW 12,000 FEET WITH NO
SIGNIFICANT WEATHER AND/OR OBSTRUCTIONS TO VISIBILITY.

WIZ001-002-006>008-014>016-023>028-031700-
NORTHWEST WISCONSIN

CITY           SKY/WX    TMP DP  RH WIND       PRES   REMARKS
SUPERIOR ARPT  FOG       60  60 100 E7        30.00S VSB 1/2
ASHLAND        CLOUDY    65  65 100 NW5       30.01S
HAYWARD        CLOUDY    69  64  84 E9        30.00S
SIREN          MOSUNNY   70  65  83 E8        29.97S
CUMBERLAND     CLOUDY    68  64  88 E8        29.98S
RICE LAKE      CLOUDY    68  64  86 E9        29.99S
CHETEK         CLOUDY   N/A N/A N/A NE6       29.98S
LADYSMITH        N/A    N/A N/A N/A MISG        N/A
EAU CLAIRE     CLOUDY    71  66  84 NE8       29.95S
MENOMONIE      CLOUDY    70  67  93 NE6       29.96R
NEW RICHMOND   PTSUNNY   73  69  87 E9        29.95S
OSCEOLA        MOSUNNY   75  72  91 E8        29.97R
$$

WIZ003>005-009-010-017-018-031700-
NORTH CENTRAL WISCONSIN

CITY           SKY/WX    TMP DP  RH WIND       PRES   REMARKS
MANITOWISH WTR SUNNY     71  65  82 E6        30.01S
ARBOR VITAE    SUNNY     72  64  75 CALM      30.01S
WOODRUFF       SUNNY     72  64  75 CALM      30.01S
RHINELANDER    CLOUDY    71  63  75 VRB3      30.02R
EAGLE RIVER    MOSUNNY   70  62  75 NE5       30.01S
LAND O LAKES   PTSUNNY   72  63  74 NE6       30.03S
PHILLIPS       MOSUNNY   70  64  80 E6        30.00S
TOMAHAWK       PTSUNNY   69  64  82 E6        30.01R
MEDFORD        CLOUDY    67  64  92 NE7       30.00R
MERRILL        CLOUDY    68  66  93 E6        30.00R
$$

WIZ029-030-035-036-043>047-031700-
CENTRAL WISCONSIN

CITY           SKY/WX    TMP DP  RH WIND       PRES   REMARKS
WAUSAU         CLOUDY    70  64  81 N5        29.98R
MOSINEE        CLOUDY    68  66  94 N5        29.99S
MARSHFIELD     CLOUDY    71  63  75 NE7       29.98S
STEVENS POINT  CLOUDY    67  64  89 E3        29.98S
WAUPACA        CLOUDY    72  69  89 N3        29.96S
WAUTOMA        NOT AVBL
WISC RAPIDS    CLOUDY    71  64  78 E8        29.98S
CAMP DOUGLAS   NOT AVBL
$$

WIZ011>013-019>022-031-037>040-048>050-031700-
NORTHEAST WISCONSIN

CITY           SKY/WX    TMP DP  RH WIND       PRES   REMARKS
ANTIGO         CLOUDY    68  65  91 NE6       30.00R
SHAWANO        NOT AVBL
OCONTO         CLOUDY    69  69 100 NE8       29.93R
STURGEON BAY   CLOUDY    68  64  88 N9        29.96R
GREEN BAY      CLOUDY    74  68  81 N10       29.94R
MANITOWOC      NOT AVBL
APPLETON       CLOUDY    70  66  88 N9        29.94R
CLINTONVILLE   CLOUDY    70  64  83 N6        29.95S
OSHKOSH        CLOUDY    71  65  81 N9        29.95R
$$

WIZ032>034-041-042-053>061-031700-
SOUTHWEST WISCONSIN

CITY           SKY/WX    TMP DP  RH WIND       PRES   REMARKS
LA CROSSE      SUNNY     82  71  69 E7        29.92S HX  86
SPARTA         CLOUDY    78  68  72 CALM      29.94S HX  80
VIROQUA          N/A     79  73  82 CALM      29.95S HX  82
BOSCOBEL       SUNNY     84  72  67 CALM      29.92F HX  89
PRAIRIE DU CHI SUNNY     81  69  66 SW3       29.92S HX  84
PLATTEVILLE    SUNNY     80  73  78 W6        29.95S HX  84
$$

WIZ056-057-062-063-064-067-068-031700-
SOUTH CENTRAL WISCONSIN

CITY           SKY/WX    TMP DP  RH WIND       PRES   REMARKS
REEDSBURG      MOSUNNY   80  71  75 CALM      29.93S HX  83
BARABOO/DELLS  MOSUNNY   81  68  65 N3        29.94S HX  83
LONE ROCK      NOT AVBL
MINERAL POINT  SUNNY     82  72  69 W5        29.95S HX  87
MADISON        MOSUNNY   82  71  69 CALM      29.92F HX  86
MIDDLETON      SUNNY     83  70  66 W5        29.94S HX  87
WATERTOWN      SUNNY     80  74  84 NW3       29.92F HX  84
MONROE         SUNNY     81  70  69 W8        29.95S HX  84
JANESVILLE     MOSUNNY   84  70  61 W9        29.93S HX  88
$$

WIZ051-052-058>065-066-070>072-031700-
SOUTHEAST WISCONSIN

CITY           SKY/WX    TMP DP  RH WIND       PRES   REMARKS
MILWAUKEE      MOSUNNY   82  69  64 W6        29.92S HX  85
WAUKESHA       MOSUNNY   79  70  73 SW6       29.95R HX  81
MILWAUKEE/TIMM MOSUNNY   81  68  65 W6        29.93S HX  83
RACINE         MOSUNNY   83  70  64 SW6       29.94S HX  87
BURLINGTON     SUNNY     80  68  67 NW6       29.94S HX  82
KENOSHA        CLOUDY    83  71  67 W9        29.94S HX  87
FOND DU LAC    CLOUDY    72  67  84 N8        29.95R
SHEBOYGAN      PTSUNNY   75  70  84 N10       29.93R
WEST BEND      CLOUDY    77  68  73 NW8       29.94R
JUNEAU         CLOUDY    76  70  83 NW3       29.95R
$$

LSZ147-162-031700-
LAKE SUPERIOR

STATION/POSITION TIME  TEMP    WIND        PRES    WAVE
                       AIR SEA DIR/SP/G            HT/PER
                 (UTC) (F)     (DEG/KT/KT) (MB)    (FT/S)
W MID LAKE BUOY  1450   57 57  290/  2/  2 1016.4S   0
DEVILS ISLAND    1500   58      30/  8/  9 1016.3S
PORT WING        1500   59      30/  9/ 10 1015.9S
SAXON HARBOR     1500   62        CALM     1015.6
$$

LMZ867-665-643>646-031700-
LAKE MICHIGAN

STATION/POSITION TIME  TEMP    WIND        PRES    WAVE
                       AIR SEA DIR/SP/G            HT/PER
                 (UTC) (F)     (DEG/KT/KT) (MB)    (FT/S)
CHAMBERS ISLAND  1540   64     350/ 10/ 11 1013.9R
S GREEN BAY BUOY 1530   67 66  360/  8/ 12 1014.8R
N MID LAKE BUOY  1450   67 65  130/ 10/ 12 1012.8R   3/ 5
NORTHPORT PIER   1500   67      30/  7/ 10 1013.5R
SISTER BAY       1411   68      70/  6/  9   N/A
ALGOMA LAKESHORE 1544           70/  9/ 11   N/A
KEWAUNEE LAKESHO 1500          330/  5/  8 1012.0R
SHEBOYGAN LAKESH 1500   64     100/  3/  3 1013.1S
PORT WASHINGTON  1500   80     340/  7/ 11 1013.5S
ATWATER BUOY     1500   69     260/  8/  8 1014.3F
MILWAUKEE LAKESH 1510   78     260/  8/ 10   N/A
S MID LAKE BUOY  1450   73 71  230/ 10/ 12 1013.0R   1/ 3
KENOSHA   LAKESH 1500   80     280/  8/ 15 1013.2S
$$

TC  - TEMPERATURE IN CELSIUS
VSB - VISIBILITY IN STATUTE MILES
WCI - WIND CHILL INDEX
HX  - HEAT INDEX



USA.gov is the U.S. government's official web portal to all federal, state and local government web resources and services.